User: anonymous   Login
Location: Unspecified
(0.0000°N, 0.0000°E)
Time: 14:07:03
(UTC+00:00)
Language:

Dynamics Explorer 1 - Orbit

View from above orbital plane
View from above orbital plane
View from above satellite
View from above satellite

Ground track
Ground track

The orbit data is extracted from the following two-line orbital elements,

1 12624U 81070A   18114.60707682 +.00000076 +00000-0 +22931-3 0  9995
2 12624 090.1556 034.0568 6195699 120.0223 314.9911 03.52492819620250
Epoch (UTC): 24 April 2018 14:34:11
Eccentricity: 0.6195699
inclination: 90.1556°
perigee height: 560 km
apogee height: 23159 km
right ascension of ascending node: 34.0568°
argument of perigee: 120.0223°
revolutions per day: 3.52492819
mean anomaly at epoch: 314.9911°
orbit number at epoch: 62025

The dashed part of the orbit path shows where the satellite is in the earth's shadow,  

DLR